LiveATC.Net - Listen to live air traffic control over the Internet!
Airport/ARTCC Code
Frequency Search
(e.g., 124.400, 128.75)
Site-wide search
 


Browse LiveATC Feeds
Top 50 LiveATC Feeds
LiveATC Feed Map
Bad Weather Areas

LiveATC FAQ
Offer LiveATC feed
Contact LiveATC.net
Press Inquiries

LiveATC on iPhone
LiveATC on Android

Windows Phone
Windows 8/10

LiveATC Mobile
(Mobile browser)

ATC Audio Archives
Interesting Recordings

LiveATC Forums

Home Page
About LiveATC.net
Make a Donation
Terms of Use
Privacy Policy

Canadian Air Freqs

AIRMETs/SIGMETs

FAA Airport Status
Nat'l Airspace Status
Arrival Demand Charts


Server Software By:
Icecast.org
Liquidsoap

Select an area of interest:
U.S. Feeds: Class B Airports | Class C Airports | Class D/Other Airports | ARTCC (Centers)
International Feeds: Canada | Europe | Oceania | Asia | South America | North/Central America | Africa
Misc Feeds: HF Feeds
Search by ICAO/IATA airport code:   (e.g., kbos, kjfk, lax, eham, etc.)


Currently Available Live Feeds: 2493
Status Updated: Thu Oct 17 2019 14:01:22 UTC


NOTICE

Unauthorized use prohibited. See LiveATC.net Terms of Service

South America Airport Feeds

 

SABE Gnd/Twr/App (Archives)
Buenos Aires, Argentina

Feed Status: UP
Listen in your browser - HTML5 player(in browser, HTML5)
Click here to listen with your own player(launches your MP3 player)

SABE 171330Z 07011KT 1000 R13/1200 OVC008 16/16 Q1014 NOSIG

SABE Flight Activity (Flightaware)

Listeners: 13 out of 1051 total

Aerolineas Argentinas Ops: 131.950
Aerolineas Argentinas Ops: 131.100
Aeroparque Ground: 121.900
Aeroparque Tower: 120.600
Aeroparque Tower: 118.250
Aeroparque Tower: 128.850
Aeroparque Tower: 118.850
Aeroparque Tower: 129.300
Air to Air: 123.450
Baires: 125.900
Baires: 125.300
Baires: 124.900
Cordoba South: 126.500
Ezeiza Ground: 121.750
Ezeiza North: 133.350
Ezeiza North: 124.500
Ezeiza North: 125.600
Ezeiza North: 135.500
Ezeiza South: 124.100
Ezeiza South: 125.200
LAN Ops: 131.700

Powered by aeropuertotucuman.blogspot.com

SANT Tower/Apps (Archives)
Tucuman, Argentina

Feed Status: UP
Listen in your browser - HTML5 player(in browser, HTML5)
Click here to listen with your own player(launches your MP3 player)

SANT 171300Z 23006KT 8000 NSC 16/11 Q1019

SANT Flight Activity (Flightaware)

Listeners: 0 out of 1051 total

Aeroclub Tucuman: 119.000
Aerolineas Argentinas SOC Salta: 131.100
Aerolineas Argentinas SOC Tucuman: 131.950
Air To Air: 123.450
Andes Lineas Aereas: 132.000
Campo Arenal: 130.950
Catamarca Tower: 118.150
Copa Airlines: 129.400
Cordoba Centro Norte: 125.100
Cordoba Centro Sur: 126.500
Emergency/Guard: 121.500
Lan Argentina Operaciones: 131.700
Lan Peru: 131.300
Salta Tower: 128.850
Santiago del Estero Tower: 118.700
Taca Peru: 126.450
Termas de Rio Hondo: 118.200
Termas de Rio Hondo: 119.850
Tucuman Ground: 121.750
Tucuman Ground: 121.750
Tucuman Tower: 118.350
Tucuman Tower: 119.500

Powered by:

aeropuertotucuman.blogspot.com

SASA Twr/App (Archives)
Salta, Argentina

Feed Status: UP
Listen in your browser - HTML5 player(in browser, HTML5)
Click here to listen with your own player(launches your MP3 player)

SASA 171300Z 02004KT 9999 FEW012 SCT017 BKN100 13/08 Q1019

SASA Flight Activity (Flightaware)

Listeners: 1 out of 1051 total

Cordoba Approach (North): 125.100
Salta Approach: 124.600
Salta Tower: 126.000
Salta Tower/Ground: 128.850

SAZN Tower (Archives)
Neuquen, Argentina

Feed Status: UP
Listen in your browser - HTML5 player(in browser, HTML5)
Click here to listen with your own player(launches your MP3 player)

SAZN 171400Z 27005KT CAVOK 16/09 Q1020

SAZN Flight Activity (Flightaware)

Listeners: 0 out of 1051 total

Neuquen Tower/Approach: 119.800

SAZS Gnd/Twr/App (Archives)
Rio Negro, Argentina

Feed Status: UP
Listen in your browser - HTML5 player(in browser, HTML5)
Click here to listen with your own player(launches your MP3 player)

SAZS 171300Z 31017KT 9999 FEW048 08/M02 Q1020

SAZS Flight Activity (Flightaware)

Listeners: 0 out of 1051 total

Bariloche Ground: 118.650
Bariloche Twr/App: 119.100
Chapelco Tower/Approach: 119.600
Comodoro Rivadavia Control: 125.500
Emergency: 121.500
Ezeiza South: 125.200
Puerto Mont Radar North: 121.300
Puerto Mont Radar South: 128.300
Puerto Mont Radio: 126.900


Feed courtesy of: Juan Jose Porta - Bariloche

SBBI Gnd/Twr (Archives)
Curitiba, Brazil

Feed Status: UP
Listen in your browser - HTML5 player(in browser, HTML5)
Click here to listen with your own player(launches your MP3 player)

SBBI 171300Z 06008KT 9999 BKN013 20/16 Q1022

SBBI Flight Activity (Flightaware)

Listeners: 2 out of 1051 total

Bacacheri Ground: 121.800
Bacacheri Tower: 118.900

SBBV Approach (Archives)
Boa Vista, Brazil

Feed Status: UP
Listen in your browser - HTML5 player(in browser, HTML5)
Click here to listen with your own player(launches your MP3 player)

SBBV 171400Z 06007KT 9999 BKN015 FEW020TCU BKN080 28/21 Q1015

SBBV Flight Activity (Flightaware)

Listeners: 5 out of 1051 total

Boa Vista Approach: 120.100

SBBV Tower (Archives)
Boa Vista, Brazil

Feed Status: UP
Listen in your browser - HTML5 player(in browser, HTML5)
Click here to listen with your own player(launches your MP3 player)

SBBV 171400Z 06007KT 9999 BKN015 FEW020TCU BKN080 28/21 Q1015

SBBV Flight Activity (Flightaware)

Listeners: 1 out of 1051 total

Boa Vista Tower: 118.100

SBCT Gnd/Twr/App (Archives)
Curitiba, Brazil

Feed Status: UP
Listen in your browser - HTML5 player(in browser, HTML5)
Click here to listen with your own player(launches your MP3 player)

SBCT 171400Z 09009KT 9999 BKN014 OVC020 20/16 Q1022

SBCT Flight Activity (Flightaware)

Listeners: 2 out of 1051 total

Curitiba Approach: 119.950
Curitiba Ground: 121.900
Curitiba Tower: 118.150
Curitiba Tower: 118.900

SBDN Twr/App (Archives)
Presidente Prudente/Sao Paulo, Brazil

Feed Status: UP
Listen in your browser - HTML5 player(in browser, HTML5)
Click here to listen with your own player(launches your MP3 player)

SBDN 171300Z 10012KT CAVOK 27/15 Q1016

SBDN Flight Activity (Flightaware)

Listeners: 2 out of 1051 total

Air-to-Air: 123.450
Curitiba Sector 13: 133.595
Prudente Approach: 118.450
Prudente Tower: 125.450

SBEG Tower/App (Archives)
Manaus, Brazil

Feed Status: UP
Listen in your browser - HTML5 player(in browser, HTML5)
Click here to listen with your own player(launches your MP3 player)

SBEG 171400Z 30002KT 9999 SCT015 29/22 Q1015

SBEG Flight Activity (Flightaware)

Listeners: 3 out of 1051 total

Emergency/Guard: 121.500
Manaus Approach : 119.250
Manaus Approach: 120.400
Manaus Approach: 119.700
Manaus Tower: 118.300

SBFI Twr/App/Ctr/Misc (Archives)
Foz do Iguacu, Brazil

Feed Status: UP
Listen in your browser - HTML5 player(in browser, HTML5)
Click here to listen with your own player(launches your MP3 player)

SBFI 171400Z 10007KT CAVOK 27/20 Q1015

SBFI Flight Activity (Flightaware)

Listeners: 1 out of 1051 total

Asuncion Center (Paraguay): 126.900
Asuncion Center (Paraguay): 128.400
Curitiba Center: 127.200
Curitiba Center: 125.800
Emergency/Guard: 121.500
Foz do Iguacu Approach/Departure: 120.300
Foz do Iguacu Approach/Departure: 119.150
Foz do Iguacu Tower: 118.800
Guarani Approach (Paraguay): 119.300
Puerto Iguazu - Cataratas Tower (Argentina) : 120.700
Resistencia Center (Argentina): 124.300
UNICOM: 123.450

SBFZ Twr/App/Center (Archives)
Fortaleza, Brazil

Feed Status: UP
Listen in your browser - HTML5 player(in browser, HTML5)
Click here to listen with your own player(launches your MP3 player)

SBFZ 171400Z 10018KT 9999 FEW030 BKN050 30/19 Q1015

SBFZ Flight Activity (Flightaware)

Listeners: 6 out of 1051 total

ACC-RE (Fortaleza Sector): 125.150
ACC-RE (Fortaleza Sector): 126.350
ACC-RE (Fortaleza Sector): 135.250
Fortaleza Approach: 133.000
Fortaleza Tower: 129.000

SBGO Gnd/Twr/App (Archives)
Goiania, Brazil

Feed Status: UP
Listen in your browser - HTML5 player(in browser, HTML5)
Click here to listen with your own player(launches your MP3 player)

SBGO 171400Z 34009KT CAVOK 33/16 Q1017

SBGO Flight Activity (Flightaware)

Listeners: 3 out of 1051 total

Anapolis Approach: 119.150
Anapolis Approach: 120.550
Anapolis Approach: 133.000
Anapolis Approach: 129.450
Emergency/Guard: 121.500
Goiania Ground: 121.700
Goiania Tower: 118.700
Goiania Tower: 121.050

SBJP Twr/Control/Airlines (Archives)
Joao Pessoa, Brazil

Feed Status: UP
Listen in your browser - HTML5 player(in browser, HTML5)
Click here to listen with your own player(launches your MP3 player)

SBJP 171300Z 16016KT 9999 SCT025 BKN080 30/19 Q1016

SBJP Flight Activity (Flightaware)

Listeners: 0 out of 1051 total

AZUL: 130.900
GOL: 131.225
Joao Pessoa Tower: 118.300
Recife Control: 119.500
TAM: 130.500

SBJU Tower/Center (Archives)
Juazeiro do Norte, Brazil

Feed Status: UP
Listen in your browser - HTML5 player(in browser, HTML5)
Click here to listen with your own player(launches your MP3 player)

SBJU 171300Z 06004KT 9999 FEW022 30/15 Q1019

SBJU Flight Activity (Flightaware)

Listeners: 0 out of 1051 total

Pilot-to-Pilot: 123.450
Radio Juazeiro: 131.750
Recife Center: 135.250
Recife Center: 125.150

Sponsored by:

SBLO Gnd/Twr/App
Londrina, Brazil

Feed Status: DOWN
Offline since: 2019-10-08 12:32:05 UTC

SBLO 171400Z 14006KT CAVOK 28/18 Q1018

Londrina Approach: 129.700
Londrina Ground: 119.550
Londrina Tower: 118.400

SBMG Twr/App/Misc (Archives)
Maringa, Brazil

Feed Status: UP
Listen in your browser - HTML5 player(in browser, HTML5)
Click here to listen with your own player(launches your MP3 player)

SBMG 171300Z 10009KT CAVOK 26/17 Q1016

SBMG Flight Activity (Flightaware)

Listeners: 4 out of 1051 total

Air to Air: 123.450
Londrina Approach: 129.700
Maringa Tower: 118.750

SBMK RDO/Center (Archives)
Montes Claros, Brazil

Feed Status: UP
Listen in your browser - HTML5 player(in browser, HTML5)
Click here to listen with your own player(launches your MP3 player)

SBMK Flight Activity (Flightaware)

Listeners: 12 out of 1051 total

Brasilia Center (Sector 15): 127.300
Montes Claros RDO: 131.700

SBMQ Tower/App/Center (Archives)
Macapa, Brazil

Feed Status: UP
Listen in your browser - HTML5 player(in browser, HTML5)
Click here to listen with your own player(launches your MP3 player)

SBMQ 171400Z 07010KT 9999 SCT020 33/24 Q1013

SBMQ Flight Activity (Flightaware)

Listeners: 1 out of 1051 total

Amazonico Center: 123.950
Amazonico Center: 128.000
Macapa Approach: 119.000
Macapa Tower: 118.000

SBNF Tower (Archives)
Navegantes, Brazil

Feed Status: UP
Listen in your browser - HTML5 player(in browser, HTML5)
Click here to listen with your own player(launches your MP3 player)

SBNF 171300Z 08011KT 9999 SCT009 BKN015 23/21 Q1019

SBNF Flight Activity (Flightaware)

Listeners: 0 out of 1051 total

Navegantes Tower: 118.200

SBPA Gnd/Twr/App (Archives)
Porto Alegre, Brazil

Feed Status: UP
Listen in your browser - HTML5 player(in browser, HTML5)
Click here to listen with your own player(launches your MP3 player)

SBPA 171324Z 11009KT 3000 RA BKN007 FEW040TCU OVC045 20/20 Q1017

SBPA Flight Activity (Flightaware)

Listeners: 7 out of 1051 total

BACO (Canoas) Ground: 121.700
BACO (Canoas) Tower: 122.800
BACO (Canoas) Tower: 118.500
Emergency/Guard: 121.500
Porto Alegre Approach Sector 2: 119.000
Porto Alegre Approach Sector 1: 120.100
Porto Alegre Approach Sector 3: 120.550
Porto Alegre Approach Sector 4: 128.900
Porto Alegre Center: 126.750
Porto Alegre Center: 127.400
Porto Alegre Center: 135.850
Porto Alegre Center: 128.450
Salgado Filho Ground: 121.900
Salgado Filho Tower: 118.100

NOTE: Feed site maintenance Nov 13-30, 2016

SBPL RDO (Archives)
Petrolina, Brazil

Feed Status: UP
Listen in your browser - HTML5 player(in browser, HTML5)
Click here to listen with your own player(launches your MP3 player)

SBPL 171400Z 15015KT 9999 FEW040 30/15 Q1017

SBPL Flight Activity (Flightaware)

Listeners: 2 out of 1051 total

Petrolina RDO: 125.700

Sponsored by PNZSpotter

SBRF App 129.60 (Archives)
Recife, Brazil

Feed Status: UP
Listen in your browser - HTML5 player(in browser, HTML5)
Click here to listen with your own player(launches your MP3 player)

SBRF 171400Z 14015KT 9999 SCT022 28/22 Q1016

SBRF Flight Activity (Flightaware)

Listeners: 9 out of 1051 total

Recife Approach: 129.600

SBRF Ground (Archives)
Recife, Brazil

Feed Status: UP
Listen in your browser - HTML5 player(in browser, HTML5)
Click here to listen with your own player(launches your MP3 player)

SBRF 171400Z 14015KT 9999 SCT022 28/22 Q1016

SBRF Flight Activity (Flightaware)

Listeners: 1 out of 1051 total

Recife Ground: 121.850

SBRF Recife ACC (Archives)
Recife, Brazil

Feed Status: UP
Listen in your browser - HTML5 player(in browser, HTML5)
Click here to listen with your own player(launches your MP3 player)

SBRF 171400Z 14015KT 9999 SCT022 28/22 Q1016

SBRF Flight Activity (Flightaware)

Listeners: 1 out of 1051 total

Recife Center: 128.700
Recife Center: 133.650
Recife Center: 134.800

SBRF Tower (Archives)
Recife, Brazil

Feed Status: UP
Listen in your browser - HTML5 player(in browser, HTML5)
Click here to listen with your own player(launches your MP3 player)

SBRF 171400Z 14015KT 9999 SCT022 28/22 Q1016

SBRF Flight Activity (Flightaware)

Listeners: 2 out of 1051 total

Recife Tower: 125.250
Recife Tower: 118.350
Recife Tower: 118.900

SBRP Tower/Center (Archives)
Ribeirao Preto, Brazil

Feed Status: UP
Listen in your browser - HTML5 player(in browser, HTML5)
Click here to listen with your own player(launches your MP3 player)

SBRP 171400Z VRB05KT CAVOK 33/14 Q1016

SBRP Flight Activity (Flightaware)

Listeners: 3 out of 1051 total

Leite Lopes Tower: 118.000
Pirassununga Center (North): 119.550

SBSN Twr/App/ACC (Archives)
Santarem, Brazil

Feed Status: UP
Listen in your browser - HTML5 player(in browser, HTML5)
Click here to listen with your own player(launches your MP3 player)

SBSN 171400Z 19004KT 9999 FEW017 FEW023TCU SCT100 25/24 Q1014 RETS

SBSN Flight Activity (Flightaware)

Listeners: 0 out of 1051 total

Brasilia Center/ACC: 123.650
Brasilia Center/ACC: 125.050
Santarem Approach: 119.300
Santarem Tower: 118.100

SBSR AFIS/App/Center (Archives)
Sao Jose do Rio Preto, Brazil

Feed Status: UP
Listen in your browser - HTML5 player(in browser, HTML5)
Click here to listen with your own player(launches your MP3 player)

SBSR 171300Z 06009KT CAVOK 32/14 Q1017

SBSR Flight Activity (Flightaware)

Listeners: 1 out of 1051 total

Academia Approach (North Sector): 119.750
Academia Approach (North Sector): 120.400
Brasilia Center: 135.150
Rio Preto Radio AFIS: 130.850

SBTE Twr/App (Archives)
Teresina, Brazil

Feed Status: UP
Listen in your browser - HTML5 player(in browser, HTML5)
Click here to listen with your own player(launches your MP3 player)

SBTE 171400Z 09008KT 9999 SCT030 33/19 Q1013

SBTE Flight Activity (Flightaware)

Listeners: 2 out of 1051 total

Teresina Approach: 119.600
Teresina Tower: 118.800

Sponsored by:

Pistadoiszero

SBRE Recife ACC (Archives)
Paulo Afonso, Brazil

Feed Status: UP
Listen in your browser - HTML5 player(in browser, HTML5)
Click here to listen with your own player(launches your MP3 player)

SBRE Flight Activity (Flightaware)

Listeners: 0 out of 1051 total

Recife Center (ACC): 125.400
Recife Center (ACC): 125.450
Recife Center (ACC): 126.850
Recife Center (ACC): 133.650
Recife Center (ACC): 134.500
Recife Center (ACC): 134.900

SBUF AFIS/Center (Archives)
Paulo Afonso, Brazil

Feed Status: UP
Listen in your browser - HTML5 player(in browser, HTML5)
Click here to listen with your own player(launches your MP3 player)

SBUF 171300Z 11011KT 9999 FEW021 29/17 Q1018

SBUF Flight Activity (Flightaware)

Listeners: 0 out of 1051 total

Paulo Afonso Radio: 125.850
Recife Center: 133.650
Recife Center: 134.500
Recife Center: 125.450

SBQV AFIS (Archives)
Vitoria da Conquista, Brazil

Feed Status: UP
Listen in your browser - HTML5 player(in browser, HTML5)
Click here to listen with your own player(launches your MP3 player)

SBQV Flight Activity (Flightaware)

Listeners: 1 out of 1051 total

Conquista AFIS: 130.850
Despacho Azul: 131.875
Despacho Passaredo: 132.000

SBVT Gnd/Twr/App (Archives)
Vitoria, Brazil

Feed Status: UP
Listen in your browser - HTML5 player(in browser, HTML5)
Click here to listen with your own player(launches your MP3 player)

SBVT 171300Z 01008KT 9999 BKN035 26/19 Q1020

SBVT Flight Activity (Flightaware)

Listeners: 0 out of 1051 total

SBVT Approach: 119.850
SBVT Ground: 121.950
SBVT Tower: 118.100

SCEL Gnd/Twr/Radar (Archives)
Santiago, Chile

Feed Status: UP
Listen in your browser - HTML5 player(in browser, HTML5)
Click here to listen with your own player(launches your MP3 player)

SCEL 171400Z VRB04KT 9999 BKN040 13/06 Q1020 NOSIG

SCEL Flight Activity (Flightaware)

Listeners: 8 out of 1051 total

Santiago Authorizations: 121.700
Santiago Control (Lat 3323S North): 128.100
Santiago Control (Lat 3323S South): 126.300
Santiago Ground (Primary): 122.200
Santiago Ground (Secondary): 122.500
Santiago Radar: 135.400
Santiago Radar (Arrival, Primary): 129.700
Santiago Radar (Arrival, Secondary): 119.700
Santiago Radar (Arrival, Secondary): 123.800
Santiago Radar (Departure, Primary): 121.100
Santiago Radar (Departure, Secondary): 123.800
Santiago Radar (Information, Primary): 122.400
Santiago Radar (Information, Secondary): 120.800
Santiago Radar (Information, Secondary): 123.800
Santiago Tower (Primary): 118.100
Santiago Tower (Secondary): 118.350
SCTB Tobalaba Tower: 118.700

SEGU App/Dep/Info (Archives)
Guayaquil, Ecuador

Feed Status: UP
Listen in your browser - HTML5 player(in browser, HTML5)
Click here to listen with your own player(launches your MP3 player)

SEGU 171400Z 22012KT 9999 SCT013 BKN033 25/20 Q1013 NOSIG RMK A2993

SEGU Flight Activity (Flightaware)

Listeners: 0 out of 1051 total

Guayaquil Approach: 120.700
Guayaquil Approach (Secondary): 119.300
Guayaquil Info: 126.900

SEGU Gnd/Twr (Archives)
Guayaquil, Ecuador

Feed Status: UP
Listen in your browser - HTML5 player(in browser, HTML5)
Click here to listen with your own player(launches your MP3 player)

SEGU 171400Z 22012KT 9999 SCT013 BKN033 25/20 Q1013 NOSIG RMK A2993

SEGU Flight Activity (Flightaware)

Listeners: 0 out of 1051 total

Guayaquil Ground: 121.900
Guayaquil Ground (Secondary): 121.700
Guayaquil Tower: 118.300
Guayaquil Tower (Secondary): 118.900

SEGU Gnd/Twr/App (Archives)
Guayaquil, Ecuador

Feed Status: UP
Listen in your browser - HTML5 player(in browser, HTML5)
Click here to listen with your own player(launches your MP3 player)

SEGU 171400Z 22012KT 9999 SCT013 BKN033 25/20 Q1013 NOSIG RMK A2993

SEGU Flight Activity (Flightaware)

Listeners: 1 out of 1051 total

Guayaquil Approach: 120.700
Guayaquil Ground: 121.900
Guayaquil Tower: 118.300

SEGU Guayaquil Center (Archives)
Guayaquil, Ecuador

Feed Status: UP
Listen in your browser - HTML5 player(in browser, HTML5)
Click here to listen with your own player(launches your MP3 player)

SEGU 171400Z 22012KT 9999 SCT013 BKN033 25/20 Q1013 NOSIG RMK A2993

SEGU Flight Activity (Flightaware)

Listeners: 0 out of 1051 total

Guayaquil Center: 127.950
Guayaquil Center: 128.300
Guayaquil Center (Secondary): 128.000
Guayaquil Center (Secondary): 123.900

SEQM ATIS (Archives)
Quito, Ecuador

Feed Status: UP
Listen in your browser - HTML5 player(in browser, HTML5)
Click here to listen with your own player(launches your MP3 player)

SEQM 171400Z 28002KT 9999 FEW026 17/09 Q1028 NOSIG RMK A3037

SEQM Flight Activity (Flightaware)

Listeners: 0 out of 1051 total

Quito ATIS: 118.700

SEQM Gnd/Twr/App (Archives)
Quito, Ecuador

Feed Status: UP
Listen in your browser - HTML5 player(in browser, HTML5)
Click here to listen with your own player(launches your MP3 player)

SEQM 171400Z 28002KT 9999 FEW026 17/09 Q1028 NOSIG RMK A3037

SEQM Flight Activity (Flightaware)

Listeners: 1 out of 1051 total

Quito Approach/Departure: 119.700
Quito Approach/Departure: 121.200
Quito Ground: 121.900
Quito Tower: 118.100
Quito Tower (Secondary): 118.350

SEQM Tower (Archives)
Quito, Ecuador

Feed Status: UP
Listen in your browser - HTML5 player(in browser, HTML5)
Click here to listen with your own player(launches your MP3 player)

SEQM 171400Z 28002KT 9999 FEW026 17/09 Q1028 NOSIG RMK A3037

SEQM Flight Activity (Flightaware)

Listeners: 0 out of 1051 total

Quito Tower: 118.100
Quito Tower (Secondary): 118.350

SGAS Gnd/Twr/App/Center
Asuncion, Paraguay

Feed Status: DOWN
Offline since: 2019-09-19 15:16:23 UTC

SGAS 171400Z 14005KT 9999 SCT033 26/20 Q1014

Asuncion Approach: 119.700
Asuncion Control: 126.900
Asuncion Ground: 121.900
Asuncion Tower: 118.100

SKBO Del/Gnd/Twr/App
Bogota, Colombia

Feed Status: DOWN
Offline since: 2019-10-15 01:51:39 UTC

SKBO 171400Z 05004KT 9999 FEW020 15/08 A3039 NOSIG

Bogota Approach: 119.500
Bogota Clearance Delivery: 121.600
Bogota Departure (North): 121.300
Bogota Departure (South): 119.650
Bogota Ground (North): 121.800
Bogota Ground (South): 122.750
Bogota Information: 126.900
Bogota Tower (North): 118.100
Bogota Tower (South): 118.250
Guaymaral Ground: 121.700
Guaymaral Tower: 118.800

SKBQ Approach (Archives)
Barranquilla, Colombia

Feed Status: UP
Listen in your browser - HTML5 player(in browser, HTML5)
Click here to listen with your own player(launches your MP3 player)

SKBQ 171400Z 16005KT 080V200 9999 FEW012 SCT200 29/25 A2991 NOSIG

SKBQ Flight Activity (Flightaware)

Listeners: 0 out of 1051 total

Barranquilla Approach/Departure: 119.100

SPJC Approach (Archives)
Lima, Peru

Feed Status: UP
Listen in your browser - HTML5 player(in browser, HTML5)
Click here to listen with your own player(launches your MP3 player)

SPJC 171400Z 31005KT 280V340 9999 OVC015 18/15 Q1017 NOSIG RMK PP000

SPJC Flight Activity (Flightaware)

Listeners: 0 out of 1051 total

Lima Approach: 119.700

SPJC Ground (Archives)
Lima, Peru

Feed Status: UP
Listen in your browser - HTML5 player(in browser, HTML5)
Click here to listen with your own player(launches your MP3 player)

SPJC 171400Z 31005KT 280V340 9999 OVC015 18/15 Q1017 NOSIG RMK PP000

SPJC Flight Activity (Flightaware)

Listeners: 0 out of 1051 total

Lima Ground: 121.900

SPJC Tower (Archives)
Lima, Peru

Feed Status: UP
Listen in your browser - HTML5 player(in browser, HTML5)
Click here to listen with your own player(launches your MP3 player)

SPJC 171400Z 31005KT 280V340 9999 OVC015 18/15 Q1017 NOSIG RMK PP000

SPJC Flight Activity (Flightaware)

Listeners: 0 out of 1051 total

Lima Tower: 118.100

SPST Tower (Archives)
Tarapoto, Peru

Feed Status: UP
Listen in your browser - HTML5 player(in browser, HTML5)
Click here to listen with your own player(launches your MP3 player)

SPST 171300Z 31003KT 9999 SCT020 BKN080 25/22 Q1015 RMK BIRD HAZARD RWY 17/35 PP000

SPST Flight Activity (Flightaware)

Listeners: 0 out of 1051 total

Tarapoto Tower: 118.400

SSBL Air to Air (Archives)
Blumenau, Brazil

Feed Status: UP
Listen in your browser - HTML5 player(in browser, HTML5)
Click here to listen with your own player(launches your MP3 player)

SSBL Flight Activity (Flightaware)

Listeners: 0 out of 1051 total

Air to Air: 123.450

SUMU Twr/App (Archives)
Montevideo, Uruguay

Feed Status: UP
Listen in your browser - HTML5 player(in browser, HTML5)
Click here to listen with your own player(launches your MP3 player)

SUMU 171400Z 08014KT 2500 -DZBR BKN008 OVC070 17/13 Q1016 TEMPO RADZ

SUMU Flight Activity (Flightaware)

Listeners: 0 out of 1051 total

SUMU Approach: 119.200
SUMU Tower: 118.100

Sponsored by Aeroclub Aerosur - Escuela de Vuelo

SUMU Twr/App/Radar (Archives)
Montevideo, Uruguay

Feed Status: UP
Listen in your browser - HTML5 player(in browser, HTML5)
Click here to listen with your own player(launches your MP3 player)

SUMU 171400Z 08014KT 2500 -DZBR BKN008 OVC070 17/13 Q1016 TEMPO RADZ

SUMU Flight Activity (Flightaware)

Listeners: 0 out of 1051 total

SUMU Approach: 120.200
SUMU Approach: 119.200
SUMU Info: 121.800
SUMU Informacion: 121.800
SUMU Radar Control: 128.500
SUMU Radar Control: 126.300
SUMU Radar Control: 128.000
SUMU Tower: 118.100

Feed provided by:

Volemos.com.uy

Aviación Uruguaya - Volemos.com.uy

SUPU/SUPC Misc
Paysandu, Uruguay

Feed Status: DOWN
Offline since: 2019-10-15 15:29:06 UTC

SUPU 040900Z 10005KT 9999 FEW020TCU BKN070 FEW200 23/23 Q1010

Chalkling Tower: 118.700
Paysandu Tower: 118.200

Courtesy of: Aeroclub Paysandu

SVPR Twr/App/FIR
Ciudad Guayana, Venezuela

Feed Status: DOWN
Offline since: 2019-10-17 02:40:40 UTC

Emergency/Guard: 121.500
FIR 6: 126.000
Guayana Approach (Primary): 119.500
Guayana Approach (Secondary): 120.300
Guayana Tower (Primary): 118.000
Guayana Tower (Secondary): 123.500
SMC: 121.900

SVVA Gnd/Twr/App
Valencia, Venezuela

Feed Status: DOWN
Offline since: 2019-10-17 14:01:06 UTC

SVVA 171300Z /////KT 9999 FEW016 26/20 Q1016

Libertador Approach: 119.300
Valencia Ground: 121.900
Valencia Tower: 121.200

TNCA Twr/Apron/FIR (Archives)
Oranjestad, Aruba

Feed Status: UP
Listen in your browser - HTML5 player(in browser, HTML5)
Click here to listen with your own player(launches your MP3 player)

TNCA 171300Z 10015KT 9999 FEW019 30/24 Q1013 NOSIG

TNCA Flight Activity (Flightaware)

Listeners: 1 out of 1051 total

Beatrix Ground (Apron): 121.600
Beatrix Tower: 120.900
Beatrix Tower (secondary): 118.000
Curacao Control: 127.100
Emergency/Guard: 121.500
Search/Rescue: 123.100

NOTES: OurAirports.com

TNCB Tower (Archives)
Kralendijk, Bonaire

Feed Status: UP
Listen in your browser - HTML5 player(in browser, HTML5)
Click here to listen with your own player(launches your MP3 player)

TNCB 171255Z 11011KT 070V150 9999 SCT020 SCT023 31/24 Q1013

TNCB Flight Activity (Flightaware)

Listeners: 0 out of 1051 total

Bonaire Tower: 118.700

TNCC Curacao Control (Archives)
Willemstad, Curacao

Feed Status: UP
Listen in your browser - HTML5 player(in browser, HTML5)
Click here to listen with your own player(launches your MP3 player)

TNCC 171300Z 11011KT 070V130 9999 FEW020 31/23 Q1013 NOSIG

TNCC Flight Activity (Flightaware)

Listeners: 0 out of 1051 total

Curacao Control: 124.100
Curacao Control: 127.100

TNCC Tower/Radar (Archives)
Willemstad, Curacao

Feed Status: UP
Listen in your browser - HTML5 player(in browser, HTML5)
Click here to listen with your own player(launches your MP3 player)

TNCC 171300Z 11011KT 070V130 9999 FEW020 31/23 Q1013 NOSIG

TNCC Flight Activity (Flightaware)

Listeners: 1 out of 1051 total

Hato Radar: 119.600
Hato Tower: 118.300

TNCC Twr/Radar/Control (Archives)
Willemstad, Curacao

Feed Status: UP
Listen in your browser - HTML5 player(in browser, HTML5)
Click here to listen with your own player(launches your MP3 player)

TNCC 171300Z 11011KT 070V130 9999 FEW020 31/23 Q1013 NOSIG

TNCC Flight Activity (Flightaware)

Listeners: 1 out of 1051 total

Curacao Control: 127.100
Hato Radar: 119.600
Hato Tower: 118.300

TNCE Info (Archives)
Oranjestad, Sint Eustatius

Feed Status: UP
Listen in your browser - HTML5 player(in browser, HTML5)
Click here to listen with your own player(launches your MP3 player)

TNCE 171255Z AUTO 06010KT 030V100 //// // ///////// 30/23 Q1015 RE//

TNCE Flight Activity (Flightaware)

Listeners: 1 out of 1051 total

Statia Info: 118.100

TTCP Gnd/Twr/App (Archives)
Scarborough, Trinidad and Tobago

Feed Status: UP
Listen in your browser - HTML5 player(in browser, HTML5)
Click here to listen with your own player(launches your MP3 player)

TTCP 171340Z 15007KT 5000 -SHRA SCT016 27/24 Q1014 NOSIG

TTCP Flight Activity (Flightaware)

Listeners: 0 out of 1051 total

Piarco Approach: 119.000
Robinson Ground: 121.700
Robinson Tower: 118.400

TTPP Apron/Gnd/Twr (Archives)
Port of Spain, Trinidad and Tobago

Feed Status: UP
Listen in your browser - HTML5 player(in browser, HTML5)
Click here to listen with your own player(launches your MP3 player)

TTPP 171300Z 00000KT 9999 FEW018 30/24 Q1014 NOSIG

TTPP Flight Activity (Flightaware)

Listeners: 0 out of 1051 total

Piarco Apron: 121.750
Piarco Ground: 121.900
Piarco Tower: 118.100

TTPP Piarco Approach (Archives)
Port of Spain, Trinidad and Tobago

Feed Status: UP
Listen in your browser - HTML5 player(in browser, HTML5)
Click here to listen with your own player(launches your MP3 player)

TTPP 171300Z 00000KT 9999 FEW018 30/24 Q1014 NOSIG

TTPP Flight Activity (Flightaware)

Listeners: 0 out of 1051 total

Piarco Approach: 119.550
Piarco Approach: 119.000
Piarco Approach (backup): 124.000

TTPP Piarco Center (Archives)
Port of Spain, Trinidad and Tobago

Feed Status: UP
Listen in your browser - HTML5 player(in browser, HTML5)
Click here to listen with your own player(launches your MP3 player)

TTPP 171300Z 00000KT 9999 FEW018 30/24 Q1014 NOSIG

TTPP Flight Activity (Flightaware)

Listeners: 2 out of 1051 total

Piarco Center: 123.700
Piarco Center (Oceanic): 126.500
Piarco Center (South Sector): 125.400
Piarco Center Oceanic (Backup): 133.100